SCP
1 2 1 2 2 2 1 1 0 0 0 0 0 0 0 0 0 0 0 1 1 0 0 0 0 0 0 1 1 0 0 0 0 0 0 0 0 0 0 0 0 0 0
2 2 2 2 2 1 1 1 1 0 0 0 0 0 0 0 0 0 0 0 0 0 0 0 0 0 0 1 1 1 0 0 0 0 0 0 0 0 0 0 0 0 0
2 3 2 2 2 2 1 1 0 0 0 0 0 0 0 0 0 0 0 0 0 0 0 0 0 0 0 0 1 1 0 0 0 0 0 0 0 0 0 0 0 0 0
3 3 2 2 2 2 1 1 0 0 0 0 0 0 0 0 0 0 0 0 0 0 0 0 0 0 0 0 1 0 0 0 0 0 0 0 0 0 0 0 0 0 0
2 2 2 1 2 1 1 1 1 0 0 0 0 0 0 0 0 0 0 0 0 0 0 0 0 0 0 0 0 0 0 0 0 0 0 0 0 0 0 0 0 -0 0
2 2 2 2 2 1 1 1 1 0 0 0 0 0 0 0 0 0 0 0 0 0 0 0 0 0 0 0 0 0 0 0 0 0 0 0 0 0 0 0 0 0 0
2 3 2 2 1 1 1 0 0 0 0 0 0 0 0 0 0 0 0 0 0 0 0 1 0 0 0 0 0 0 0 0 0 0 0 0 0 0 0 0 0 0 0
2 1 2 1 1 1 0 0 0 0 0 0 0 0 0 0 0 0 0 0 0 0 0 0 0 0 0 0 0 1 0 0 0 0 0 0 0 0 0 0 0 0 0
2 1 1 1 1 0 0 0 0 0 0 0 0 0 0 0 0 0 0 0 0 0 0 0 0 0 0 0 0 1 0 0 0 0 0 0 0 0 0 0 -0 -0 0
1 1 1 0 0 0 0 0 0 0 0 0 0 0 0 0 0 0 0 0 0 0 0 0 0 0 0 0 1 1 0 0 0 0 0 0 0 0 0 0 -0 -0 0
1 1 0 0 0 0 0 0 0 0 0 0 0 0 0 0 0 0 0 0 0 0 0 0 0 0 0 1 0 0 0 0 0 0 0 -0 0 0 0 0 0 -0 -0
1 0 0 0 0 0 0 0 0 0 -0 0 -0 0 0 0 0 0 0 0 0 0 0 0 0 0 0 0 0 0 0 0 0 0 0 -0 0 0 0 0 0 -0 0
0 0 0 0 0 0 0 0 0 0 0 0 0 -0 -0 0 0 0 0 0 0 0 0 0 0 0 0 0 0 0 0 0 0 -0 -0 0 0 0 0 0 0 -0 0
0 0 0 -0 0 0 0 0 0 0 -0 -0 -0 0 -0 0 0 0 0 0 0 0 0 0 0 0 0 0 0 -0 0 -0 -0 0 0 0 0 0 -0 0 0 0 0
0 0 0 -0 -0 0 0 0 0 0 -0 -0 -0 0 0 0 0 0 0 0 0 0 0 0 0 0 0 0 0 0 0 -0 -0 0 0 0 0 0 0 0 0 0 -0
-0 0 0 0 -0 0 0 0 0 0 -0 0 0 0 0 0 0 0 -0 0 0 0 0 0 0 0 0 0 0 0 -0 -0 -0 0 -0 -0 -0 0 0 0 -0 -0 0
-0 -0 -0 0 0 0 0 -0 0 -0 -0 0 0 0 0 0 -0 0 0 0 0 0 0 0 0 0 0 0 0 -0 0 0 0 0 0 -0 0 0 0 -0 0 0 0
-0 -0 0 -0 0 0 -0 0 0 0 0 0 -0 -0 -0 0 0 0 0 0 0 0 0 0 0 0 0 0 0 0 0 0 0 0 0 0 0 0 -0 -0 0 -0 -0
-0 -0 -0 -0 -0 -0 0 0 0 0 0 0 0 -0 0 -0 -0 -0 -0 0 -0 0 0 0 0 0 0 0 0 0 0 0 0 0 0 0 0 -0 -0 0 -0 -0 -0
0 0 -0 -0 -0 0 0 0 0 0 0 0 0 0 0 -0 0 0 0 0 0 0 0 0 0 0 0 0 0 0 0 0 0 0 0 0 -0 -0 -0 -0 -0 -0 -0
0 0 -0 -0 -0 0 -0 0 0 0 0 0 0 0 0 0 0 0 0 0 0 0 0 0 0 0 0 0 0 0 0 0 0 0 0 0 0 0 0 -0 -0 -0 -0
0 0 0 -0 -0 0 0 -0 -0 0 0 0 0 0 0 -0 0 0 0 0 0 0 0 0 0 0 0 0 0 0 -0 -0 -0 -0 0 0 0 0 0 0 -0 -0 0
0 0 0 -0 0 0 -0 -0 -0 0 0 0 0 0 0 -0 0 0 0 0 0 0 0 0 0 0 0 -0 -0 -0 -0 -0 0 0 0 0 0 -0 0 0 0 0 0
-0 0 0 0 0 0 0 -0 -0 -0 0 0 0 0 0 0 0 0 0 0 0 0 0 0 -0 -0 -0 -0 -0 0 -0 0 0 -0 0 0 -0 -0 0 0 0 0 0
-0 0 0 0 0 0 0 0 0 -0 0 0 0 0 0 0 -0 -0 0 0 0 0 0 0 0 -0 -0 0 -0 -0 -0 -0 -0 -0 0 0 0 0 0 0 0 0 0
-0 0 0 0 0 0 0 0 0 0 0 0 0 0 -0 0 -0 0 0 0 0 0 0 -0 -0 -0 -0 -0 -0 -0 -0 0 -0 0 0 0 0 0 0 0 0 0 0
Wind_Speed_500mb
30 23 26 29 31 29 25 34 37 40 38 39 39 39 42 35 32 30 41 41 42 39 39 39 37 37 40 40 35 36 39 37 41 45 43 43 45 39 37 36 36 34 33
31 37 37 34 39 39 40 37 37 38 35 31 29 29 34 38 39 39 28 32 37 34 37 44 38 37 39 42 37 38 40 41 38 46 48 48 43 41 41 38 37 37 29
32 37 34 32 41 40 39 44 43 38 32 33 25 27 30 36 35 43 44 21 29 37 32 31 36 36 36 41 39 38 43 44 41 53 54 46 45 46 45 39 38 30 27
38 33 32 34 27 45 44 43 44 39 33 31 29 27 30 32 34 36 45 39 30 23 17 10 26 34 33 40 41 40 43 45 45 54 52 51 49 46 47 47 38 31 25
33 28 32 34 40 47 40 40 39 34 35 30 27 24 32 27 29 35 39 34 46 29 26 25 20 27 31 38 42 40 43 47 46 53 58 55 50 50 50 45 35 30 30
29 29 38 39 42 45 40 37 35 33 34 27 26 26 33 32 29 22 30 32 39 38 30 28 30 22 30 38 41 40 43 50 51 55 59 53 52 52 48 39 32 34 30
30 36 41 43 47 44 38 35 34 34 35 27 28 31 33 30 38 35 37 34 37 30 29 35 25 23 24 40 43 40 41 52 50 53 67 51 57 50 51 36 37 38 36
28 29 36 42 40 38 37 35 34 33 35 35 39 28 15 31 44 45 41 38 33 33 39 37 33 26 27 33 43 42 40 54 54 60 61 62 56 53 51 39 43 40 34
30 28 39 36 32 33 35 29 30 32 35 33 36 33 14 18 31 46 45 43 38 37 32 40 47 40 30 46 45 44 44 55 57 64 68 60 59 57 46 49 44 37 30
17 21 33 33 25 22 21 22 23 29 33 36 33 39 36 14 18 17 43 37 30 42 40 41 38 43 43 35 35 45 49 66 73 61 73 66 66 54 60 55 45 33 27
34 28 26 16 17 15 14 17 20 22 26 30 34 29 41 32 25 10 26 46 39 30 33 37 36 36 40 37 38 42 57 35 48 56 60 75 67 58 57 46 36 25 19
24 20 11 11 11 10 11 12 11 14 18 21 24 29 31 25 16 10 33 29 35 28 21 26 22 32 40 40 38 56 52 71 62 64 79 75 61 58 54 41 33 16 18
12 6 8 15 13 8 6 4 4 5 9 11 17 23 24 22 15 23 35 34 26 24 13 16 22 23 34 45 49 50 53 69 73 63 66 67 65 56 49 35 26 22 22
6 14 11 9 4 6 7 9 8 7 8 7 8 13 20 13 12 11 26 29 37 24 23 25 21 18 28 39 45 56 74 72 61 78 79 70 60 53 39 33 30 26 24
7 6 4 4 3 1 7 8 11 11 5 5 4 4 8 12 10 12 28 37 51 38 28 21 24 20 26 37 52 73 79 64 81 85 80 72 58 50 40 37 33 27 19
16 3 4 1 1 2 6 6 7 6 5 2 1 3 2 2 4 6 22 35 37 48 27 31 30 42 29 42 81 78 84 92 89 82 69 58 51 47 39 36 29 29 21
12 8 6 7 2 3 2 6 8 9 10 6 7 6 1 5 6 5 30 35 36 37 44 31 23 48 48 70 96 105 96 96 85 67 57 51 51 41 37 32 30 23 18
17 13 6 5 4 11 2 5 8 12 15 3 7 5 7 17 18 18 20 36 41 31 38 63 70 77 88 95 105 99 93 81 66 61 58 44 43 38 32 27 24 20 16
13 10 5 5 9 7 4 2 4 8 8 10 8 4 12 18 17 19 22 32 31 38 68 89 76 86 102 100 100 93 75 70 56 50 47 44 40 34 29 24 20 15 11
13 13 7 6 4 6 11 17 14 4 2 5 6 7 23 16 16 22 26 30 51 72 84 90 86 86 87 84 83 79 67 59 56 49 47 43 40 32 25 21 17 14 10
16 16 7 12 6 9 10 14 10 12 11 17 18 20 26 21 18 30 33 52 81 92 91 89 84 80 78 75 71 69 69 65 53 48 47 42 35 32 27 22 17 14 11
16 12 13 15 11 4 14 16 15 18 23 20 24 31 38 38 24 34 44 72 90 91 83 86 72 75 74 74 72 71 69 64 54 36 42 38 31 31 24 21 19 14 9
20 18 15 16 12 12 14 17 17 17 24 30 36 36 38 35 37 41 67 67 79 79 70 74 74 72 72 67 67 65 62 54 50 48 40 38 30 24 24 25 19 12 8
24 22 18 14 15 11 13 15 17 20 26 35 33 31 33 35 46 52 65 65 71 69 61 70 65 60 60 62 57 50 47 42 43 39 35 36 30 24 26 24 17 11 8
22 22 20 19 12 13 13 18 21 20 29 34 30 31 29 42 47 53 68 67 58 59 57 58 57 63 50 48 59 51 44 44 47 41 28 22 28 26 26 21 17 13 10
15 16 22 20 13 13 17 25 26 28 35 34 36 33 31 41 43 41 52 66 57 58 56 54 61 45 39 58 58 36 37 35 45 36 32 19 21 23 20 20 17 17 13
Wind_Direction_500mb
241 241 249 246 237 248 272 278 266 247 259 260 263 254 249 239 254 244 231 237 231 238 250 260 259 237 220 215 213 213 213 208 204 210 197 195 197 185 185 183 180 186 170
232 228 243 255 264 265 253 253 255 262 255 260 253 244 251 243 238 245 238 222 229 242 254 259 253 234 218 215 213 210 213 210 205 202 192 192 193 188 188 184 181 175 178
241 235 237 240 265 274 260 251 252 255 263 252 257 258 267 248 234 235 221 243 254 256 259 255 242 229 218 216 213 210 211 210 203 197 197 195 191 192 185 177 173 184 182
254 241 248 261 265 264 273 256 255 258 257 246 242 252 260 255 233 229 223 220 232 241 258 256 234 229 221 216 212 211 211 210 202 202 200 196 195 191 186 181 180 189 184
264 267 265 259 256 266 269 255 256 253 248 245 236 251 249 243 231 221 237 233 221 233 253 257 246 221 221 216 210 211 212 207 199 204 199 194 195 191 187 175 182 182 158
258 256 263 281 272 273 270 250 252 253 242 238 239 248 256 252 226 238 220 213 212 232 216 234 238 224 215 214 209 210 211 203 200 199 197 193 191 187 179 180 177 161 147
243 250 272 268 275 274 270 254 253 250 232 230 240 247 251 248 217 212 225 211 220 226 211 230 223 213 223 207 208 209 208 199 195 200 193 191 188 185 185 179 169 155 150
258 268 266 276 274 276 265 259 253 247 238 236 241 244 250 243 223 214 208 209 222 221 217 217 227 232 225 211 205 208 205 197 197 198 197 189 188 187 182 173 163 156 156
258 264 274 283 278 272 268 262 253 244 243 244 239 228 207 221 223 217 208 213 218 222 205 219 217 214 232 220 210 210 204 197 193 199 191 185 182 173 168 163 161 156 151
246 280 287 286 283 277 266 257 250 245 248 248 245 235 225 208 195 208 216 212 212 220 228 230 205 207 219 216 219 216 198 198 192 196 181 177 172 166 161 157 157 149 126
265 275 275 282 279 282 270 263 255 247 245 246 241 239 226 235 236 209 196 207 216 225 218 215 218 214 224 217 210 190 179 136 178 187 189 172 163 160 164 159 156 147 153
283 272 245 312 295 280 282 277 258 248 238 233 230 223 229 232 234 226 207 202 201 202 211 212 198 205 209 191 192 187 183 179 187 191 182 176 165 166 155 158 143 159 176
298 225 175 222 265 267 280 280 212 251 232 245 233 222 223 224 225 180 200 180 168 168 168 169 196 195 194 181 187 187 172 172 175 177 179 166 150 154 161 143 150 180 169
213 157 213 235 234 243 225 253 254 254 258 258 257 239 234 225 210 199 187 188 160 154 162 144 172 168 176 179 180 181 173 174 173 173 159 149 149 152 137 157 182 177 170
110 155 182 172 211 266 242 232 241 236 213 247 314 246 197 224 227 218 212 205 180 151 141 162 158 169 158 170 185 179 175 183 172 156 149 150 155 145 157 161 162 159 191
150 257 121 80 183 250 249 217 205 187 172 148 153 87 117 35 147 171 197 178 177 173 136 165 163 162 179 168 178 184 173 149 147 148 150 150 149 153 161 172 177 170 178
154 138 48 13 22 349 315 173 183 188 271 287 284 348 47 160 111 260 168 167 171 168 142 145 160 171 178 171 158 153 144 144 147 151 146 146 147 158 178 178 164 161 178
139 129 181 290 8 316 271 218 230 217 237 255 197 181 146 149 142 134 137 146 140 148 143 135 134 135 137 144 138 139 144 142 141 142 144 148 151 158 157 156 173 179 180
141 154 163 210 293 313 55 28 184 202 243 242 273 91 145 151 154 148 143 153 152 153 142 135 120 116 130 140 138 138 140 143 144 144 149 150 157 165 168 169 177 181 200
153 143 189 293 33 46 65 69 68 88 201 133 131 114 142 135 157 158 156 160 163 146 135 130 131 129 129 136 139 140 140 145 141 152 151 159 166 169 172 183 188 199 211
162 190 180 117 65 30 89 89 63 75 112 121 112 119 136 137 135 148 142 143 142 141 143 140 137 143 140 137 142 145 144 149 150 153 157 161 168 177 182 187 192 177 174
158 179 143 133 162 87 86 87 85 88 122 112 121 115 117 121 128 152 154 150 151 150 149 148 139 138 141 148 148 150 149 145 141 156 159 156 179 182 183 183 177 178 201
164 164 165 165 175 122 103 108 96 107 125 112 117 123 123 123 136 148 152 151 155 158 153 152 151 151 151 149 149 149 148 153 150 152 171 164 179 186 186 184 185 196 218
164 181 178 184 182 150 116 123 99 107 125 125 119 124 130 131 144 153 153 149 154 156 154 153 150 145 142 145 147 140 143 148 149 161 182 170 182 201 190 190 202 214 217
186 183 188 173 197 172 140 136 112 117 129 132 124 121 126 136 144 157 158 158 157 161 160 158 141 136 134 142 143 145 160 163 162 174 184 214 190 188 190 202 217 224 228
156 164 183 170 193 161 142 149 134 132 133 137 138 134 138 137 146 143 157 161 163 168 166 160 160 154 146 150 156 158 166 175 177 173 186 203 203 193 186 206 230 238 246
Wind_Speed_850mb
30 23 26 29 31 29 25 34 37 40 38 39 39 39 42 35 32 30 41 41 42 39 39 39 37 37 40 40 35 36 39 37 41 45 43 43 45 39 37 36 36 34 33
31 37 37 34 39 39 40 37 37 38 35 31 29 29 34 38 39 39 28 32 37 34 37 44 38 37 39 42 37 38 40 41 38 46 48 48 43 41 41 38 37 37 29
32 37 34 32 41 40 39 44 43 38 32 33 25 27 30 36 35 43 44 21 29 37 32 31 36 36 36 41 39 38 43 44 41 53 54 46 45 46 45 39 38 30 27
38 33 32 34 27 45 44 43 44 39 33 31 29 27 30 32 34 36 45 39 30 23 17 10 26 34 33 40 41 40 43 45 45 54 52 51 49 46 47 47 38 31 25
33 28 32 34 40 47 40 40 39 34 35 30 27 24 32 27 29 35 39 34 46 29 26 25 20 27 31 38 42 40 43 47 46 53 58 55 50 50 50 45 35 30 30
29 29 38 39 42 45 40 37 35 33 34 27 26 26 33 32 29 22 30 32 39 38 30 28 30 22 30 38 41 40 43 50 51 55 59 53 52 52 48 39 32 34 30
30 36 41 43 47 44 38 35 34 34 35 27 28 31 33 30 38 35 37 34 37 30 29 35 25 23 24 40 43 40 41 52 50 53 67 51 57 50 51 36 37 38 36
28 29 36 42 40 38 37 35 34 33 35 35 39 28 15 31 44 45 41 38 33 33 39 37 33 26 27 33 43 42 40 54 54 60 61 62 56 53 51 39 43 40 34
30 28 39 36 32 33 35 29 30 32 35 33 36 33 14 18 31 46 45 43 38 37 32 40 47 40 30 46 45 44 44 55 57 64 68 60 59 57 46 49 44 37 30
17 21 33 33 25 22 21 22 23 29 33 36 33 39 36 14 18 17 43 37 30 42 40 41 38 43 43 35 35 45 49 66 73 61 73 66 66 54 60 55 45 33 27
34 28 26 16 17 15 14 17 20 22 26 30 34 29 41 32 25 10 26 46 39 30 33 37 36 36 40 37 38 42 57 35 48 56 60 75 67 58 57 46 36 25 19
24 20 11 11 11 10 11 12 11 14 18 21 24 29 31 25 16 10 33 29 35 28 21 26 22 32 40 40 38 56 52 71 62 64 79 75 61 58 54 41 33 16 18
12 6 8 15 13 8 6 4 4 5 9 11 17 23 24 22 15 23 35 34 26 24 13 16 22 23 34 45 49 50 53 69 73 63 66 67 65 56 49 35 26 22 22
6 14 11 9 4 6 7 9 8 7 8 7 8 13 20 13 12 11 26 29 37 24 23 25 21 18 28 39 45 56 74 72 61 78 79 70 60 53 39 33 30 26 24
7 6 4 4 3 1 7 8 11 11 5 5 4 4 8 12 10 12 28 37 51 38 28 21 24 20 26 37 52 73 79 64 81 85 80 72 58 50 40 37 33 27 19
16 3 4 1 1 2 6 6 7 6 5 2 1 3 2 2 4 6 22 35 37 48 27 31 30 42 29 42 81 78 84 92 89 82 69 58 51 47 39 36 29 29 21
12 8 6 7 2 3 2 6 8 9 10 6 7 6 1 5 6 5 30 35 36 37 44 31 23 48 48 70 96 105 96 96 85 67 57 51 51 41 37 32 30 23 18
17 13 6 5 4 11 2 5 8 12 15 3 7 5 7 17 18 18 20 36 41 31 38 63 70 77 88 95 105 99 93 81 66 61 58 44 43 38 32 27 24 20 16
13 10 5 5 9 7 4 2 4 8 8 10 8 4 12 18 17 19 22 32 31 38 68 89 76 86 102 100 100 93 75 70 56 50 47 44 40 34 29 24 20 15 11
13 13 7 6 4 6 11 17 14 4 2 5 6 7 23 16 16 22 26 30 51 72 84 90 86 86 87 84 83 79 67 59 56 49 47 43 40 32 25 21 17 14 10
16 16 7 12 6 9 10 14 10 12 11 17 18 20 26 21 18 30 33 52 81 92 91 89 84 80 78 75 71 69 69 65 53 48 47 42 35 32 27 22 17 14 11
16 12 13 15 11 4 14 16 15 18 23 20 24 31 38 38 24 34 44 72 90 91 83 86 72 75 74 74 72 71 69 64 54 36 42 38 31 31 24 21 19 14 9
20 18 15 16 12 12 14 17 17 17 24 30 36 36 38 35 37 41 67 67 79 79 70 74 74 72 72 67 67 65 62 54 50 48 40 38 30 24 24 25 19 12 8
24 22 18 14 15 11 13 15 17 20 26 35 33 31 33 35 46 52 65 65 71 69 61 70 65 60 60 62 57 50 47 42 43 39 35 36 30 24 26 24 17 11 8
22 22 20 19 12 13 13 18 21 20 29 34 30 31 29 42 47 53 68 67 58 59 57 58 57 63 50 48 59 51 44 44 47 41 28 22 28 26 26 21 17 13 10
15 16 22 20 13 13 17 25 26 28 35 34 36 33 31 41 43 41 52 66 57 58 56 54 61 45 39 58 58 36 37 35 45 36 32 19 21 23 20 20 17 17 13
Wind_Direction_850mb
241 241 249 246 237 248 272 278 266 247 259 260 263 254 249 239 254 244 231 237 231 238 250 260 259 237 220 215 213 213 213 208 204 210 197 195 197 185 185 183 180 186 170
232 228 243 255 264 265 253 253 255 262 255 260 253 244 251 243 238 245 238 222 229 242 254 259 253 234 218 215 213 210 213 210 205 202 192 192 193 188 188 184 181 175 178
241 235 237 240 265 274 260 251 252 255 263 252 257 258 267 248 234 235 221 243 254 256 259 255 242 229 218 216 213 210 211 210 203 197 197 195 191 192 185 177 173 184 182
254 241 248 261 265 264 273 256 255 258 257 246 242 252 260 255 233 229 223 220 232 241 258 256 234 229 221 216 212 211 211 210 202 202 200 196 195 191 186 181 180 189 184
264 267 265 259 256 266 269 255 256 253 248 245 236 251 249 243 231 221 237 233 221 233 253 257 246 221 221 216 210 211 212 207 199 204 199 194 195 191 187 175 182 182 158
258 256 263 281 272 273 270 250 252 253 242 238 239 248 256 252 226 238 220 213 212 232 216 234 238 224 215 214 209 210 211 203 200 199 197 193 191 187 179 180 177 161 147
243 250 272 268 275 274 270 254 253 250 232 230 240 247 251 248 217 212 225 211 220 226 211 230 223 213 223 207 208 209 208 199 195 200 193 191 188 185 185 179 169 155 150
258 268 266 276 274 276 265 259 253 247 238 236 241 244 250 243 223 214 208 209 222 221 217 217 227 232 225 211 205 208 205 197 197 198 197 189 188 187 182 173 163 156 156
258 264 274 283 278 272 268 262 253 244 243 244 239 228 207 221 223 217 208 213 218 222 205 219 217 214 232 220 210 210 204 197 193 199 191 185 182 173 168 163 161 156 151
246 280 287 286 283 277 266 257 250 245 248 248 245 235 225 208 195 208 216 212 212 220 228 230 205 207 219 216 219 216 198 198 192 196 181 177 172 166 161 157 157 149 126
265 275 275 282 279 282 270 263 255 247 245 246 241 239 226 235 236 209 196 207 216 225 218 215 218 214 224 217 210 190 179 136 178 187 189 172 163 160 164 159 156 147 153
283 272 245 312 295 280 282 277 258 248 238 233 230 223 229 232 234 226 207 202 201 202 211 212 198 205 209 191 192 187 183 179 187 191 182 176 165 166 155 158 143 159 176
298 225 175 222 265 267 280 280 212 251 232 245 233 222 223 224 225 180 200 180 168 168 168 169 196 195 194 181 187 187 172 172 175 177 179 166 150 154 161 143 150 180 169
213 157 213 235 234 243 225 253 254 254 258 258 257 239 234 225 210 199 187 188 160 154 162 144 172 168 176 179 180 181 173 174 173 173 159 149 149 152 137 157 182 177 170
110 155 182 172 211 266 242 232 241 236 213 247 314 246 197 224 227 218 212 205 180 151 141 162 158 169 158 170 185 179 175 183 172 156 149 150 155 145 157 161 162 159 191
150 257 121 80 183 250 249 217 205 187 172 148 153 87 117 35 147 171 197 178 177 173 136 165 163 162 179 168 178 184 173 149 147 148 150 150 149 153 161 172 177 170 178
154 138 48 13 22 349 315 173 183 188 271 287 284 348 47 160 111 260 168 167 171 168 142 145 160 171 178 171 158 153 144 144 147 151 146 146 147 158 178 178 164 161 178
139 129 181 290 8 316 271 218 230 217 237 255 197 181 146 149 142 134 137 146 140 148 143 135 134 135 137 144 138 139 144 142 141 142 144 148 151 158 157 156 173 179 180
141 154 163 210 293 313 55 28 184 202 243 242 273 91 145 151 154 148 143 153 152 153 142 135 120 116 130 140 138 138 140 143 144 144 149 150 157 165 168 169 177 181 200
153 143 189 293 33 46 65 69 68 88 201 133 131 114 142 135 157 158 156 160 163 146 135 130 131 129 129 136 139 140 140 145 141 152 151 159 166 169 172 183 188 199 211
162 190 180 117 65 30 89 89 63 75 112 121 112 119 136 137 135 148 142 143 142 141 143 140 137 143 140 137 142 145 144 149 150 153 157 161 168 177 182 187 192 177 174
158 179 143 133 162 87 86 87 85 88 122 112 121 115 117 121 128 152 154 150 151 150 149 148 139 138 141 148 148 150 149 145 141 156 159 156 179 182 183 183 177 178 201
164 164 165 165 175 122 103 108 96 107 125 112 117 123 123 123 136 148 152 151 155 158 153 152 151 151 151 149 149 149 148 153 150 152 171 164 179 186 186 184 185 196 218
164 181 178 184 182 150 116 123 99 107 125 125 119 124 130 131 144 153 153 149 154 156 154 153 150 145 142 145 147 140 143 148 149 161 182 170 182 201 190 190 202 214 217
186 183 188 173 197 172 140 136 112 117 129 132 124 121 126 136 144 157 158 158 157 161 160 158 141 136 134 142 143 145 160 163 162 174 184 214 190 188 190 202 217 224 228
156 164 183 170 193 161 142 149 134 132 133 137 138 134 138 137 146 143 157 161 163 168 166 160 160 154 146 150 156 158 166 175 177 173 186 203 203 193 186 206 230 238 246